This is the latest recevied weather packets stored in our database for station/object SQ6RR-12. If no packets are shown the sender has not sent any weather packets the latest 10 day(s).
| Time | Temp. | Humidity | Pressure | Rain* | Wind** | Luminosity | Snow |
|---|---|---|---|---|---|---|---|
| 1777753642 | 10° C | 78% | 1020.6 hPa | 0 mm | - | - | - |
| 1777753372 | 9.44° C | 79% | 1020.7 hPa | 0 mm | - | - | - |
| 1777753084 | 10° C | 77% | 1020.7 hPa | 0 mm | - | - | - |
| 1777752799 | 10.56° C | 76% | 1020.7 hPa | 0 mm | - | - | - |
| 1777752532 | 10.56° C | 79% | 1020.7 hPa | 0 mm | - | - | - |
| 1777752257 | 10.56° C | 69% | 1020.7 hPa | 0 mm | - | - | - |
| 1777751982 | 10.56° C | 67% | 1020.8 hPa | 0 mm | - | - | - |
| 1777751712 | 10.56° C | 65% | 1020.8 hPa | 0 mm | - | - | - |
| 1777751435 | 11.11° C | 63% | 1020.8 hPa | 0 mm | - | - | - |
| 1777751166 | 11.11° C | 62% | 1020.8 hPa | 0 mm | - | - | - |
| 1777750897 | 11.67° C | 61% | 1020.9 hPa | 0 mm | - | - | - |
| 1777750632 | 11.67° C | 63% | 1020.9 hPa | 0 mm | - | - | - |
| 1777750377 | 11.67° C | 61% | 1020.9 hPa | 0 mm | - | - | - |
| 1777750122 | 11.67° C | 59% | 1020.9 hPa | 0 mm | - | - | - |
| 1777749824 | 11.67° C | 54% | 1020.9 hPa | 0 mm | - | - | - |
| 1777749567 | 12.22° C | 54% | 1020.9 hPa | 0 mm | - | - | - |
| 1777749297 | 12.78° C | 53% | 1020.8 hPa | 0 mm | - | - | - |
| 1777749027 | 13.33° C | 54% | 1020.8 hPa | 0 mm | - | - | - |
| 1777748776 | 13.33° C | 56% | 1020.8 hPa | 0 mm | - | - | - |
| 1777748511 | 13.89° C | 52% | 1020.8 hPa | 0 mm | - | - | - |
| 1777748247 | 13.89° C | 49% | 1020.8 hPa | 0 mm | - | - | - |
| 1777747972 | 14.44° C | 49% | 1020.8 hPa | 0 mm | - | - | - |
| 1777747702 | 14.44° C | 47% | 1020.7 hPa | 0 mm | - | - | - |
| 1777747422 | 14.44° C | 45% | 1020.7 hPa | 0 mm | - | - | - |
| 1777747162 | 15° C | 47% | 1020.7 hPa | 0 mm | - | - | - |
* Rain latest hour (hover to see other rain measurements)
** Current wind speed in m/s (hover to see current wind gust speed)